Indianapolis, IN

10:07 AM EDT on October 21, 2019 (GMT -0400)
Indianapolis International

Weather History for KIND - June, 2019

Change the Weather History Date:

Monday, June 3, 2019

  Actual Average Record
Temperature  
Mean Temperature 65 °F 68 °F  
Max Temperature 77 °F 78 °F 100 °F (1895)
Min Temperature 52 °F 59 °F 40 °F (1929)
Degree Days  
Heating Degree Days 0 1  
Month to date heating degree days 0 5  
Since 1 June heating degree days 0 5  
Since 1 July heating degree days 5376 5367  
Cooling Degree Days 0 5  
Month to date cooling degree days 7 15  
Year to date cooling degree days 118 99  
Since 1 June cooling degree days 7 15  
Growing Degree Days 14 (Base 50)    
Moisture  
Dew Point 46 °F    
Average Humidity 55    
Maximum Humidity 77    
Minimum Humidity 33    
Precipitation  
Precipitation 0.00 in 0.14 in 2.89 in (1950)
Month to date precipitation 0.00 0.43  
Year to date precipitation 21.64 17.83  
Snow  
Snow 0.00 in 0.00 in 0.00 in ()
Month to date snowfall 0.0 0.0  
Since 1 June snowfall 0.0 0.0  
Since 1 July snowfall 19.4 25.9  
Snow Depth 0.00 in    
Sea Level Pressure  
Sea Level Pressure 30.08 in    
Wind  
Wind Speed 4 mph (WSW)    
Max Wind Speed 15 mph    
Max Gust Speed 24 mph    
Visibility 10 miles    
Events      
T = Trace of Precipitation, MM = Missing Value Source: NWS Daily Summary

Daily Weather History Graph

Daily Weather History Graph

Search for Another Location

Airport or City:

Astronomy

Jun. 03, 2019 Rise Set
Actual Time 6:18 AM EDT 9:08 PM EDT
Civil Twilight 5:46 AM EDT 9:40 PM EDT
Nautical Twilight 5:06 AM EDT 10:20 PM EDT
Astronomical Twilight 4:20 AM EDT 11:07 PM EDT
Moon 6:38 AM EDT (6/3) 9:32 PM EDT (6/3)
Length of Visible Light 15h 53m
Length of Day
14h 49m
New Moon, 0% of the Moon is Illuminated
Jun 3
New Moon
Jun 10
First Quarter
Jun 17
Full
Jun 25
Last Quarter
Jul 2
New

Hourly Weather History & Observations

Time (EDT) Temp. Dew Point Humidity Pressure Visibility Wind Dir Wind Speed Gust Speed Precip Events Conditions
12:54 AM 57.0 °F 39.9 °F 53% 30.01 in 10.0 mi Calm Calm - N/A   Clear
1:54 AM 55.9 °F 39.9 °F 55% 30.01 in 10.0 mi Calm Calm - N/A   Clear
2:54 AM 55.0 °F 43.0 °F 64% 30.01 in 10.0 mi SW 3.5 mph - N/A   Clear
3:54 AM 53.1 °F 44.1 °F 71% 30.02 in 10.0 mi WSW 3.5 mph - N/A   Clear
4:54 AM 52.0 °F 45.0 °F 77% 30.04 in 10.0 mi WSW 3.5 mph - N/A   Clear
5:54 AM 53.1 °F 44.1 °F 71% 30.05 in 10.0 mi Calm Calm - N/A   Clear
6:54 AM 54.0 °F 45.0 °F 72% 30.08 in 10.0 mi Calm Calm - N/A   Mostly Cloudy
7:54 AM 57.9 °F 46.9 °F 67% 30.09 in 10.0 mi Calm Calm - N/A   Partly Cloudy
8:54 AM 61.0 °F 45.0 °F 56% 30.12 in 10.0 mi Calm Calm - N/A   Partly Cloudy
9:54 AM 64.0 °F 44.1 °F 48% 30.13 in 10.0 mi SW 3.5 mph - N/A   Scattered Clouds
10:54 AM 66.9 °F 41.0 °F 39% 30.13 in 9.0 mi WSW 3.5 mph - N/A   Clear
11:54 AM 69.1 °F 43.0 °F 39% 30.13 in 9.0 mi SW 6.9 mph - N/A   Partly Cloudy
12:54 PM 71.1 °F 44.1 °F 38% 30.12 in 9.0 mi West 6.9 mph - N/A   Scattered Clouds
1:54 PM 73.0 °F 46.0 °F 38% 30.12 in 10.0 mi West 5.8 mph - N/A   Scattered Clouds
2:54 PM 75.0 °F 46.0 °F 36% 30.11 in 10.0 mi West 6.9 mph - N/A   Scattered Clouds
3:54 PM 75.0 °F 45.0 °F 34% 30.10 in 10.0 mi Calm Calm - N/A   Mostly Cloudy
4:54 PM 75.9 °F 46.0 °F 35% 30.08 in 10.0 mi Variable 4.6 mph - N/A   Mostly Cloudy
5:54 PM 75.9 °F 46.9 °F 36% 30.09 in 10.0 mi Variable 4.6 mph - N/A   Mostly Cloudy
6:54 PM 75.0 °F 48.0 °F 38% 30.07 in 10.0 mi Variable 3.5 mph - N/A   Mostly Cloudy
7:54 PM 73.0 °F 48.0 °F 41% 30.07 in 10.0 mi West 4.6 mph - N/A   Mostly Cloudy
8:54 PM 73.0 °F 48.0 °F 41% 30.07 in 10.0 mi Calm Calm - N/A   Mostly Cloudy
9:54 PM 66.0 °F 52.0 °F 60% 30.09 in 10.0 mi SSW 8.1 mph - N/A   Mostly Cloudy
10:54 PM 64.9 °F 53.1 °F 65% 30.09 in 10.0 mi SSW 9.2 mph - N/A   Mostly Cloudy
11:54 PM 64.0 °F 53.1 °F 67% 30.09 in 10.0 mi SSW 6.9 mph - N/A   Mostly Cloudy